Showing default

COSMOS 90, 1588

Orbit data source: Space-Track

COSMOS 90, 1588 is a payload satellite owned by OKB-10 (CIS) in LEO that was launched on Sat, 18 Sep 1965 UTC via a KOSMOS 65S3 launch vehicle from the Tyuratam Missile And Space Complex (TTMTR). Payload-class satellites include a variety of spacecraft equipped with specific instruments for various scientific and technological missions. These include communications satellites like Starlink; space stations such as the ISS; scientific satellites like the Hubble; Earth observation satellites from companies like Planet Labs, Umbra, and HawkEye 360; GPS; miniature CubeSats for education and research; and military/defense satellites.

Loading next visibility...
Identifier
1588, 1965-073E
Orbit
LEO
Country
Flag of CISCIS
Related business
Manufacturer
OKB-10
Mission
Defense Communications
Bus & Motor
STRELA-1 11F610, Unknown motor
Mass
50 kg wet, 50 kg dry
Launch date (UTC)
1965-09-18 (60 years ago)
Launch vehicle
KOSMOS 65S3
Launch site
Tyuratam Missile And Space Complex (TTMTR)
Object type
Payload
Rocket body
Debris
Shape & HBR
Poly, 0.4 m
Radar Cross Section
0.731 m², Medium (>0.1 m² and < 1m²)

Expand to show TLE details & history
Last TLE update: 6 hours ago

TLE from 6 hours ago
0 COSMOS 90
1 01588U 65073E   25242.93584404 -.00000084  00000-0  58315-4 0  9994
2 01588  56.0577 313.3658 0157320  58.8273 122.2080 12.34588840703147
Epoch: 2025-08-30T22:27Z
TLE epoch observation values (Epoch: 2025-08-30T22:27:36.925Z)
Latitude
-2.19677°
Longitude
178.57122°
Altitude
1,598.676 km
Speed
7.041 km/s
True Right ascension
08h 59m 21s
True Declination
-2° 11' 06"
Sunlit
Object was in daylight at epoch
Visualization orbit readout
Latitude
Unknown
Longitude
Unknown
Altitude
Unknown
Speed
Unknown
Apparent Right ascension
Unknown
Apparent Declination
Unknown
Sunlit
N/A
Visualization observer readout
Local Sidereal Time
20:21:27
Azimuth
Unknown
Elevation
Unknown
Doppler factor
Unknown
Orbital elements
Apogee altitude
1,653.852 km
Perigee altitude
1,405.048 km
Semi-major axis
7,907.587 km
Eccentricity
0.01573
Inclination
56.0577°
RAAN
313.3658°
Arg. of periapsis
58.8273°
True anomaly
123.71734°
Mean anomaly
122.208°
Eccentric anomaly
122.96426°
Mean motion
3.08658 °/min
Orbital period
116.63 mins
BSTAR
0.000058315
Loading maneuver chart data...
Computing Atmospheric mass density...
Loading historical data...
Loading historical data...
Loading historical data...
Loading historical data...
Loading historical data...
Loading historical data...
Loading historical data...

Documentation

Showing up to 5 results
|